User: anonymous   Login
Location: Banios
(43.0451°N, 0.2335°E)
Time: 14:09:58
(UTC+00:00)
Language:

Cosmos 2219 Rocket - Orbit

View from above orbital plane
View from above orbital plane
View from above satellite
View from above satellite

Ground track
Ground track

The orbit data is extracted from the following two-line orbital elements,

1 22220U 92076B   21101.94210170 -.00000209  00000-0 -81076-4 0  9990
2 22220  71.0026   3.2437 0014734 301.8529 134.8412 14.16466304467940
Epoch (UTC): 11 April 2021 22:36:37
Eccentricity: 0.0014734
inclination: 71.0026°
perigee height: 827 km
apogee height: 848 km
right ascension of ascending node: 3.2437°
argument of perigee: 301.8529°
revolutions per day: 14.16466304
mean anomaly at epoch: 134.8412°
orbit number at epoch: 46794

The dashed part of the orbit path shows where the satellite is in the earth's shadow,  

DLR